EW6754 Caguas PR US current weather conditions

sailwx.info

Wind from 131 at 0 knots gusting 3

Air temperature 30.6° C
Dewpoint 22.4° C

Last reported at 2019-Dec-08 15:47 UTC.
Time now 2019-Dec-08 16:47 UTC

Location: N 18°13' W 066°03'.
View on Google Maps.

See reports from other nearby stations

  
Tides and Currents Weather Stations Pressure Air Temp Water Temp Dewpoint Dewpoint Depression Visibility Wind Speed Wind Dir Waves Ship Positions
date/time (UTC)wind fromknots sea level pressurealtimeterstation pressurevisibilityair tempwater tempwave heightnotes
2019-Dec-08 15:47 131 0 gusting 3 30.6
2019-Dec-08 15:33 115 1 gusting 3 30.6
2019-Dec-08 15:16 125 1 gusting 3 29.4
2019-Dec-08 15:01 117 0 gusting 3 30.0
2019-Dec-08 14:47 196 0 gusting 3 30.0
2019-Dec-08 14:31 091 28.9
2019-Dec-08 14:16 089 28.9
2019-Dec-08 14:01 122 28.9
2019-Dec-08 13:46 105 28.3
2019-Dec-08 13:31 124 27.8
2019-Dec-08 13:16 220 27.8
2019-Dec-08 13:02 243 26.1
2019-Dec-08 12:45 243 25.6
2019-Dec-08 12:31 243 25.0
2019-Dec-08 12:16 243 24.4
2019-Dec-08 12:00 243 22.8
2019-Dec-08 11:45 243 22.2
2019-Dec-08 11:30 231 21.7
2019-Dec-08 11:15 252 21.7
2019-Dec-08 11:01 238 21.1
2019-Dec-08 10:45 238 21.1
2019-Dec-08 10:30 180 0 gusting 1 21.7
2019-Dec-08 10:15 233 21.7
2019-Dec-08 10:01 240 21.7
2019-Dec-08 09:45 240 21.7
2019-Dec-08 09:30 240 21.7
2019-Dec-08 09:15 239 21.7
2019-Dec-08 09:00 230 21.7
2019-Dec-08 08:45 236 22.2
2019-Dec-08 08:30 237 22.2
2019-Dec-08 08:15 237 22.2
2019-Dec-08 08:00 237 22.2
2019-Dec-08 07:45 237 22.2
2019-Dec-08 07:30 237 22.2
2019-Dec-08 07:15 231 0 gusting 2 22.2
2019-Dec-08 06:45 229 22.8
2019-Dec-08 06:30 220 22.8
2019-Dec-08 06:18 222 0 gusting 1 22.8
2019-Dec-08 06:01 235 22.8
2019-Dec-08 05:46 235 23.3
2019-Dec-08 05:31 235 23.3
2019-Dec-08 05:17 234 23.3
2019-Dec-08 05:01 234 23.9
2019-Dec-08 04:47 231 23.9
2019-Dec-08 04:31 231 23.9
2019-Dec-08 04:16 225 0 gusting 2 24.4
2019-Dec-08 04:02 238 24.4
2019-Dec-08 03:46 238 24.4
2019-Dec-08 03:31 238 24.4
2019-Dec-08 03:16 238 25.0
2019-Dec-08 03:01 215 25.0
2019-Dec-08 02:46 256 25.0
2019-Dec-08 02:30 254 0 gusting 1 25.0
2019-Dec-08 02:16 247 0 gusting 1 25.6
2019-Dec-08 02:01 161 25.6
2019-Dec-08 01:46 120 26.1
2019-Dec-08 01:31 091 26.1
2019-Dec-08 01:16 231 26.1
2019-Dec-08 01:01 231 26.1
2019-Dec-08 00:46 231 26.1
2019-Dec-08 00:31 212 26.1
2019-Dec-08 00:16 170 0 gusting 1 26.1
2019-Dec-08 00:01 171 0 gusting 2 26.1
2019-Dec-07 23:46 152 26.1
2019-Dec-07 23:30 145 0 gusting 2 26.7
2019-Dec-07 23:15 131 0 gusting 3 26.7
2019-Dec-07 23:00 133 0 gusting 2 26.7
2019-Dec-07 22:30 147 27.2
2019-Dec-07 22:16 159 27.2
2019-Dec-07 22:01 119 27.2
2019-Dec-07 21:45 169 0 gusting 4 27.8
2019-Dec-07 21:30 127 0 gusting 4 27.8
2019-Dec-07 21:15 131 1 gusting 5 28.9
2019-Dec-07 21:00 169 2 gusting 7 28.9
2019-Dec-07 20:45 109 2 gusting 6 28.9
2019-Dec-07 20:31 132 2 gusting 6 28.9
2019-Dec-07 20:15 116 1 gusting 7 29.4
2019-Dec-07 20:00 107 3 gusting 7 30.0
2019-Dec-07 19:45 122 3 gusting 7 30.0
2019-Dec-07 19:31 134 3 gusting 7 30.6
2019-Dec-07 19:15 097 3 gusting 8 30.6
2019-Dec-07 19:00 155 2 gusting 7 30.6
2019-Dec-07 18:45 115 2 gusting 7 31.1
2019-Dec-07 18:31 115 3 gusting 7 31.1
2019-Dec-07 18:16 137 4 gusting 8 31.7
2019-Dec-07 18:01 146 3 gusting 8 31.1
2019-Dec-07 17:46 169 0 gusting 7 31.7
2019-Dec-07 17:31 148 2 gusting 7 31.1
2019-Dec-07 17:16 205 2 gusting 6 31.1
2019-Dec-07 17:01 136 2 gusting 6 30.0
2019-Dec-07 16:46 042 31.1
2019-Dec-07 16:30 080 0 gusting 6 31.1
2019-Dec-07 16:15 056 3 gusting 6 30.6
2019-Dec-07 16:00 358 0 gusting 4 30.6
2019-Dec-07 15:46 089 1 gusting 3 30.6
2019-Dec-07 15:30 153 0 gusting 3 30.6
2019-Dec-07 15:15 105 1 gusting 4 30.6
2019-Dec-07 15:01 077 0 gusting 2 30.6
2019-Dec-07 14:45 155 28.9
2019-Dec-07 14:30 122 29.4
2019-Dec-07 14:15 269 28.9
2019-Dec-07 14:00 027 28.9
2019-Dec-07 13:45 101 28.9
2019-Dec-07 13:30 220 27.8
2019-Dec-07 13:15 129 27.8
2019-Dec-07 13:00 129 26.7
2019-Dec-07 12:45 129 26.1
2019-Dec-07 12:32 129 25.0
2019-Dec-07 12:16 202 24.4
2019-Dec-07 12:01 202 23.9
2019-Dec-07 11:47 202 23.3
2019-Dec-07 11:32 204 22.2
2019-Dec-07 11:16 204 21.7
2019-Dec-07 11:01 204 21.7
2019-Dec-07 10:47 230 21.7
2019-Dec-07 10:31 230 21.7
2019-Dec-07 10:16 231 21.7
2019-Dec-07 10:03 230 21.7
2019-Dec-07 09:46 231 21.7
2019-Dec-07 09:31 231 21.7
2019-Dec-07 09:16 240 1 gusting 2 21.7
2019-Dec-07 09:01 243 0 gusting 2 21.7
2019-Dec-07 08:46 210 21.7
2019-Dec-07 08:31 233 22.2
2019-Dec-07 08:16 215 22.2
2019-Dec-07 08:00 215 22.2
2019-Dec-07 07:45 215 22.2
2019-Dec-07 07:30 215 22.2
2019-Dec-07 07:16 215 22.2
2019-Dec-07 07:01 215 22.2
2019-Dec-07 06:46 229 22.8
2019-Dec-07 06:30 229 22.8
2019-Dec-07 06:15 229 22.8
2019-Dec-07 06:00 229 22.8
2019-Dec-07 05:45 226 22.8
2019-Dec-07 05:30 224 23.3
2019-Dec-07 05:15 224 23.3
2019-Dec-07 05:00 224 23.3
2019-Dec-07 04:45 224 23.3
2019-Dec-07 04:30 236 23.3
2019-Dec-07 04:15 231 0 gusting 2 23.3
2019-Dec-07 04:00 165 23.3
2019-Dec-07 03:45 212 0 gusting 1 23.9
2019-Dec-07 03:30 231 23.9
2019-Dec-07 03:15 224 23.9
2019-Dec-07 03:00 224 23.9
2019-Dec-07 02:45 224 23.9
2019-Dec-07 02:30 221 23.9
2019-Dec-07 02:15 202 1 gusting 3 23.9
2019-Dec-07 02:02 216 1 gusting 4 24.4
2019-Dec-07 01:46 207 24.4
2019-Dec-07 01:31 230 0 gusting 2 24.4
2019-Dec-07 01:16 233 0 gusting 2 25.0
2019-Dec-07 01:02 172 25.0
2019-Dec-07 00:46 170 0 gusting 1 25.0
2019-Dec-07 00:31 198 25.6
2019-Dec-07 00:17 216 25.6
2019-Dec-07 00:02 221 25.6
2019-Dec-06 23:47 210 26.1
2019-Dec-06 23:31 232 26.1
2019-Dec-06 23:17 224 0 gusting 3 26.7
2019-Dec-06 23:01 174 26.7
2019-Dec-06 22:46 114 26.7
2019-Dec-06 22:31 138 27.2
2019-Dec-06 22:16 138 27.2
2019-Dec-06 22:02 150 1 gusting 3 27.8
2019-Dec-06 21:46 154 1 gusting 5 27.8
2019-Dec-06 21:32 143 0 gusting 6 28.3
2019-Dec-06 21:16 153 3 gusting 6 28.9
2019-Dec-06 21:01 152 2 gusting 6 29.4
2019-Dec-06 20:46 152 3 gusting 6 29.4
2019-Dec-06 20:32 137 3 gusting 7 30.0
2019-Dec-06 20:16 144 2 gusting 7 30.0
2019-Dec-06 20:02 146 3 gusting 7 30.6
2019-Dec-06 19:46 127 2 gusting 6 30.0
2019-Dec-06 19:31 120 3 gusting 8 30.0
2019-Dec-06 19:16 115 3 gusting 8 30.6
2019-Dec-06 19:02 122 4 gusting 6 31.1
2019-Dec-06 18:46 131 3 gusting 6 31.1
2019-Dec-06 18:31 180 2 gusting 9 31.1
2019-Dec-06 18:15 153 4 gusting 9 31.1
2019-Dec-06 18:01 123 3 gusting 9 31.1
2019-Dec-06 17:45 139 3 gusting 6 31.1
2019-Dec-06 17:30 094 3 gusting 8 30.6
2019-Dec-06 17:15 105 3 gusting 7 31.1
2019-Dec-06 17:00 117 1 gusting 8 31.1
2019-Dec-06 16:45 156 2 gusting 8 30.6
2019-Dec-06 16:30 103 4 gusting 10 30.0
2019-Dec-06 16:15 111 3 gusting 6 30.0
2019-Dec-06 16:00 111 4 gusting 11 30.0